Погода Моржовец Остров

Погода Моржовец Остров : погода сейчас, прогноз погоды и архив. Всё, что Вы хотите узнать о погоде Моржовец Остров!

Поиск расширенной информации на нашем сайте:

Другие новости

Новости СМИ2

Главная страница сайта

Новости сайта

03.07.2017

Напоминаем, что на нашем специализированном сайте Метеоцентр.Азия вы можете получить высокодетализированные автоматические прогнозы погоды по пунктам России, СНГ и мира в авиационном формате (включающие направление и скорость ветра, видимость, явления погоды, количество и форму облачности, нижнюю и верхнюю границу облачности).


Погода Моржовец Остров - сегодня

Время (UTC), дата Ветер
(°,м/с) 
Видим.   Явления Облачность Т
(°С)
Тd
(°С)
f(%) Тe
(°С)
Pmin
(гПа)
dP
(гПа)
Po
(мм)
O2
(г/м3)
Тmin Tmax R s Состояние
почвы
15 22.02.18 040 (СВ) н/о    н/о 
-15.4 -16.7 90 -22  1026.9  0.9  769  330           
21 22.02.18 050 (СВ) н/о    н/о 
-14.1 -15.9 86 -22  1028.6  770  329           
03 23.02.18 050 (СВ) н/о    н/о 
-15.7 -16.8 91 -23  1030.3  0.7  771  331           
09 23.02.18 040 (СВ) н/о    н/о 
-13 -14.6 88 -19  1031.8  0.4  772  328           
15 23.02.18 030 (СВ) 8{13}  н/о    н/о 
-12.5 -13.9 89 -19  1032.5  0.3  773  328           
21 23.02.18 030 (СВ) н/о    н/о 
-12.1 -13.8 87 -18  1034.1  0.8  774  328           
03 24.02.18 010 (С) н/о    н/о 
-7.6 -10.1 82 -13  1033.1  -0.9  773  322           
09 24.02.18 050 (СВ) 9{15}  н/о    н/о 
-8.5 -9.6 92 -15  1034.2  774  323           
15 24.02.18 040 (СВ) н/о    н/о 
-9.8 -11.8 85 -14  1035.8  0.5  775  325           
21 24.02.18 050 (СВ) 11{14}  н/о    н/о 
-9.9 -11.2 90 -17  1034.9  -0.2  775  325           
03 25.02.18 040 (СВ) 8{13}  н/о    н/о 
-9.5 -11.8 83 -16  1035  -0.4  775  325           
09 25.02.18 050 (СВ) 12{16}  н/о    н/о 
-10 -11.6 88 -18  1034.3  -0.5  774  325           
15 25.02.18 060 (СВ) 7{13}  н/о    н/о 
-14.3 -16 87 -21  1036.6  0.6  776  331           
21 25.02.18 070 (В) 10{13}  н/о    н/о 
-16.1 -17.4 90 -25  1037.3  0.7  776  334           
03 26.02.18 070 (В) 6{13}  н/о    н/о 
-19.3 -21.1 86 -26  1039.6  1.3  778  339           
09 26.02.18 070 (В) н/о    н/о 
-17.6 -19.9 82 -26  1042.4  1.8  780  338           
15 26.02.18 080 (В) н/о    н/о 
-20 -21.9 85 -27  1045.9  1.4  783  342           
21 26.02.18 080 (В) н/о    н/о 
-20 -21.9 85 -26  1048.6  0.6  785  343           
03 27.02.18 020 (С) н/о    н/о 
-15.4 -16.7 90 -18  1050.3  0.5  786  337           
09 27.02.18 300 (СЗ) н/о    н/о 
-10.1 -11.2 92 -15  1048.7  -0.6  785  330           
15 27.02.18 330 (СЗ) н/о    н/о 
-6.2 -6.9 95 -11  1047.4  -0.6  784  324           
21 27.02.18 310 (СЗ) н/о    н/о 
-6.7 -8.6 86 -13  1045.1  -1.4  782  324           
03 28.02.18 270 (З) н/о    н/о 
-10.5 -12.1 88 -17  1040.3  -2.6  779  328           
09 28.02.18 260 (З) 8{13}  н/о    н/о 
-9.4 -11.7 83 -16  1034.6  -2.4  774  324           
12 11.04.18 250 (З) н/о    н/о 
-1 -1.8 94 -4  1019.6  0.8  763  309           
Время (UTC), дата Ветер
(°,м/с) 
Видим.   Явления Облачность Т
(°С)
Тd
(°С)
f(%) Тe
(°С)
Pmin
(гПа)
dP
(гПа)
Po
(мм)
O2
(г/м3)
Тmin Tmax R s Состояние
почвы

Для получения пояснительной информации подведите курсор к названию столбца.

ПОГОДА Моржовец Остров - архив

Всё, что Вы хотите узнать о погоде Моржовец Остров - удобно и подробно!

Выберите нужную дату (начиная с 1 января 2015* года) и нажмите кнопку "Найти".
Будут отображены архивные сводки погоды по пункту Моржовец Остров, начиная с указанной даты.


Отображать данные в формате CSV (для использования в таблицах Excel)


Внимание! Наш архив погоды предназначен исключительно для личного некоммерческого использования в познавательных целях. Если Вам необходимы официальные справки о состоянии погоды (для производственных, юридических, коммерческих и т.п. целей), обращайтесь в органы Росгидромета.

*Примечание: данная дата относится к архиву по метеостанциям СССР (Россия, СНГ, Балтия).
Архив по метеостанциям Зарубежной Европы и Азии (кроме Китая) хранится 10 дней, по другим регионам земного шара (Китай, Африка, Америка, Австралия, Океания) - 1 день.

Моржовец Остров - район местоположения метеостанции


Название, широта, долгота, высота метеостанции:
Моржовец Остров 66.8°ш. 42.6°д. 15 м над ур. моря [Российская Федерация]

Дополнительная информация

В oтличие oт бoльшинства пoгoдных сайтoв мы публикуем пoдрoбную метеoинфoрмацию в детальнoм прoфессиoнальнoм фoрмате.

Характеристики температуры и влажнoсти вoздуха измеряются на высoте 2 м в тени вдали oт зданий и деревьев.
Скoрoсть ветра измеряется на высoте 10 м (на урoвне рoста челoвека скoрoсть ветра ниже в 1.5-2 раза). Если метеoстанция нахoдится в гoрoде или в лесу, тo скoрoсть ветра занижена на 2-4 м/с пo сравнению с oткрытым местoм. Скoрoсть ветра над акватoриями крупных рек и oзёр, а также на вершинах хoлмoв на 2-5 м/с выше, чем в oбычных услoвиях.
Атмoсфернoе давление в разных тoчках местнoсти мoжет значительнo oтличаться oт давления на метеoстанции, в зависимoсти oт услoвий рельефа (при пoдъёме на 10 м давление пoнижается примернo на 1 мм рт.ст.).